Time,TemperatureF,DewpointF,PressureIn,WindDirection,WindDirectionDegrees,WindSpeedMPH,WindSpeedGustMPH,Humidity,HourlyPrecipIn,Conditions,Clouds,dailyrainin,SoftwareType,DateUTC
2013-01-03 00:00:00,57.5,55.2,30.09,NW,313,0.0,0.0,92,0.00,CLR,,0.05,WeatherDisplay:10.37,2013-01-03 05:00:00,
2013-01-03 00:01:00,57.5,55.2,30.09,NW,313,0.0,0.0,92,0.00,RA,,0.00,WeatherDisplay:10.37,2013-01-03 05:01:00,
2013-01-03 00:02:00,57.5,55.2,30.09,NW,313,0.0,0.0,92,0.00,RA,,0.00,WeatherDisplay:10.37,2013-01-03 05:02:00,
2013-01-03 00:07:00,57.4,55.1,30.09,NW,313,0.0,0.0,92,0.00,RA,,0.00,WeatherDisplay:10.37,2013-01-03 05:07:00,
2013-01-03 00:12:00,57.4,55.1,30.08,NW,319,0.0,0.0,92,0.00,CLR,,0.00,WeatherDisplay:10.37,2013-01-03 05:12:00,
2013-01-03 00:17:00,57.4,55.1,30.08,NW,322,0.0,0.0,92,0.00,CLR,,0.00,WeatherDisplay:10.37,2013-01-03 05:17:00,
2013-01-03 00:22:00,57.3,55.0,30.08,East,101,3.5,3.5,92,0.00,CLR,,0.00,WeatherDisplay:10.37,2013-01-03 05:22:00,
2013-01-03 00:27:00,57.3,55.0,30.08,ESE,103,0.0,0.0,92,0.00,CLR,,0.00,WeatherDisplay:10.37,2013-01-03 05:27:00,
2013-01-03 00:32:00,57.2,54.9,30.08,ESE,108,0.0,0.0,92,0.00,CLR,,0.00,WeatherDisplay:10.37,2013-01-03 05:32:00,
2013-01-03 00:37:00,57.1,54.8,30.08,ESE,111,0.0,0.1,92,0.00,CLR,,0.00,WeatherDisplay:10.37,2013-01-03 05:37:00,
2013-01-03 00:42:00,57.1,55.1,30.08,SSE,156,5.0,5.0,93,0.00,CLR,,0.00,WeatherDisplay:10.37,2013-01-03 05:42:00,
2013-01-03 00:47:00,57.0,55.0,30.08,SE,142,0.0,0.0,93,0.00,CLR,,0.00,WeatherDisplay:10.37,2013-01-03 05:47:00,
2013-01-03 00:52:00,57.0,55.0,30.08,SE,141,1.0,1.0,93,0.00,CLR,,0.00,WeatherDisplay:10.37,2013-01-03 05:52:00,
2013-01-03 00:57:00,56.9,54.9,30.07,SE,144,6.0,6.0,93,0.00,CLR,,0.00,WeatherDisplay:10.37,2013-01-03 05:57:00,
2013-01-03 01:02:00,56.9,54.9,30.07,SE,138,6.0,6.0,93,0.00,CLR,,0.00,WeatherDisplay:10.37,2013-01-03 06:02:00,
2013-01-03 01:07:00,56.8,54.8,30.07,ESE,121,2.0,2.0,93,0.00,CLR,,0.00,WeatherDisplay:10.37,2013-01-03 06:07:00,
2013-01-03 01:12:00,56.7,54.7,30.07,SE,125,3.5,3.5,93,0.00,CLR,,0.00,WeatherDisplay:10.37,2013-01-03 06:12:00,
2013-01-03 01:17:00,56.6,54.6,30.06,ESE,123,1.1,1.1,93,0.00,CLR,,0.00,WeatherDisplay:10.37,2013-01-03 06:17:00,
2013-01-03 01:22:00,56.5,54.5,30.06,ESE,107,4.6,4.6,93,0.00,CLR,,0.00,WeatherDisplay:10.37,2013-01-03 06:22:00,
2013-01-03 01:27:00,56.4,54.4,30.07,ESE,107,0.0,0.1,93,0.00,CLR,,0.00,WeatherDisplay:10.37,2013-01-03 06:27:00,
2013-01-03 01:32:00,56.4,54.4,30.07,ESE,107,0.0,0.0,93,0.00,CLR,,0.00,WeatherDisplay:10.37,2013-01-03 06:32:00,
2013-01-03 01:37:00,56.3,54.3,30.07,ESE,107,2.0,0.0,93,0.00,CLR,,0.00,WeatherDisplay:10.37,2013-01-03 06:37:00,
2013-01-03 01:42:00,56.3,54.6,30.08,ESE,107,0.0,0.1,94,0.00,CLR,,0.00,WeatherDisplay:10.37,2013-01-03 06:42:00,
2013-01-03 01:47:00,56.2,54.5,30.08,ESE,116,0.0,0.0,94,0.00,CLR,,0.00,WeatherDisplay:10.37,2013-01-03 06:47:00,
2013-01-03 01:52:00,56.2,54.5,30.08,ESE,117,0.0,0.0,94,0.00,CLR,,0.00,WeatherDisplay:10.37,2013-01-03 06:52:00,
2013-01-03 01:57:00,56.1,54.4,30.08,ESE,119,4.0,4.0,94,0.00,CLR,,0.00,WeatherDisplay:10.37,2013-01-03 06:57:00,
2013-01-03 02:02:00,56.0,54.3,30.08,ESE,119,3.5,0.0,94,0.00,CLR,,0.00,WeatherDisplay:10.37,2013-01-03 07:02:00,
2013-01-03 02:07:00,56.0,54.3,30.09,ESE,119,0.0,0.0,94,0.00,CLR,,0.00,WeatherDisplay:10.37,2013-01-03 07:07:00,
2013-01-03 02:12:00,56.0,54.3,30.08,ESE,118,0.0,1.2,94,0.00,CLR,,0.00,WeatherDisplay:10.37,2013-01-03 07:12:00,
2013-01-03 02:17:00,55.9,54.2,30.08,ESE,118,2.3,2.3,94,0.00,CLR,,0.00,WeatherDisplay:10.37,2013-01-03 07:17:00,
2013-01-03 02:22:00,55.9,54.2,30.08,ESE,117,0.0,0.0,94,0.00,CLR,,0.00,WeatherDisplay:10.37,2013-01-03 07:22:00,
2013-01-03 02:27:00,55.9,54.2,30.08,ESE,118,0.0,0.0,94,0.00,CLR,,0.00,WeatherDisplay:10.37,2013-01-03 07:27:00,
2013-01-03 02:32:00,55.9,54.2,30.08,ESE,118,0.0,0.0,94,0.00,CLR,,0.00,WeatherDisplay:10.37,2013-01-03 07:32:00,
2013-01-03 02:37:00,55.9,54.2,30.08,ESE,118,0.0,0.0,94,0.00,CLR,,0.00,WeatherDisplay:10.37,2013-01-03 07:37:00,
2013-01-03 02:42:00,55.8,54.1,30.08,ESE,118,0.0,0.0,94,0.00,CLR,,0.00,WeatherDisplay:10.37,2013-01-03 07:42:00,
2013-01-03 02:47:00,55.8,54.1,30.08,ESE,118,0.0,0.0,94,0.00,CLR,,0.00,WeatherDisplay:10.37,2013-01-03 07:47:00,
2013-01-03 02:52:00,55.8,54.1,30.08,ESE,117,0.0,0.0,94,0.00,CLR,,0.00,WeatherDisplay:10.37,2013-01-03 07:52:00,
2013-01-03 02:57:00,55.8,54.1,30.08,ESE,117,0.0,0.0,94,0.00,CLR,,0.00,WeatherDisplay:10.37,2013-01-03 07:57:00,
2013-01-03 03:02:00,55.8,54.1,30.08,ESE,118,0.0,0.0,94,0.00,CLR,,0.00,WeatherDisplay:10.37,2013-01-03 08:02:00,
2013-01-03 03:07:00,55.7,54.0,30.08,ESE,117,0.0,0.0,94,0.00,CLR,,0.00,WeatherDisplay:10.37,2013-01-03 08:07:00,
2013-01-03 03:12:00,55.7,54.0,30.08,ESE,117,0.0,0.0,94,0.00,CLR,,0.00,WeatherDisplay:10.37,2013-01-03 08:12:00,
2013-01-03 03:17:00,55.6,53.9,30.08,ESE,117,0.0,0.0,94,0.00,CLR,,0.00,WeatherDisplay:10.37,2013-01-03 08:17:00,
2013-01-03 03:22:00,55.6,53.9,30.08,ESE,117,0.0,0.0,94,0.00,CLR,,0.00,WeatherDisplay:10.37,2013-01-03 08:22:00,
2013-01-03 03:27:00,55.6,53.9,30.08,ESE,118,0.0,0.0,94,0.00,CLR,,0.00,WeatherDisplay:10.37,2013-01-03 08:27:00,
2013-01-03 03:32:00,55.6,53.9,30.09,ESE,117,0.0,0.0,94,0.00,CLR,,0.00,WeatherDisplay:10.37,2013-01-03 08:32:00,
2013-01-03 03:37:00,55.6,53.9,30.09,ESE,118,0.0,0.0,94,0.00,CLR,,0.00,WeatherDisplay:10.37,2013-01-03 08:37:00,
2013-01-03 03:42:00,55.5,53.8,30.08,ESE,118,0.0,0.0,94,0.00,CLR,,0.00,WeatherDisplay:10.37,2013-01-03 08:42:00,
2013-01-03 03:47:00,55.5,53.8,30.08,ESE,118,0.0,0.0,94,0.00,CLR,,0.00,WeatherDisplay:10.37,2013-01-03 08:47:00,
2013-01-03 03:52:00,55.5,53.8,30.08,ESE,117,0.0,0.0,94,0.00,CLR,,0.00,WeatherDisplay:10.37,2013-01-03 08:52:00,
2013-01-03 03:57:00,55.5,53.8,30.08,ESE,118,0.0,0.0,94,0.00,CLR,,0.00,WeatherDisplay:10.37,2013-01-03 08:57:00,
2013-01-03 04:02:00,55.5,53.8,30.08,ESE,118,0.0,0.0,94,0.00,CLR,,0.00,WeatherDisplay:10.37,2013-01-03 09:02:00,
2013-01-03 04:07:00,55.5,53.8,30.08,ESE,117,0.0,0.0,94,0.00,CLR,,0.00,WeatherDisplay:10.37,2013-01-03 09:07:00,
2013-01-03 04:12:00,55.5,53.8,30.08,ESE,118,0.0,0.0,94,0.00,CLR,,0.00,WeatherDisplay:10.37,2013-01-03 09:12:00,
2013-01-03 04:17:00,55.5,53.8,30.08,ESE,118,0.0,0.0,94,0.00,CLR,,0.00,WeatherDisplay:10.37,2013-01-03 09:17:00,
2013-01-03 04:22:00,55.5,53.8,30.08,ESE,117,0.0,0.0,94,0.00,CLR,,0.00,WeatherDisplay:10.37,2013-01-03 09:22:00,
2013-01-03 04:27:00,55.4,53.7,30.08,ESE,118,0.0,0.0,94,0.00,CLR,,0.00,WeatherDisplay:10.37,2013-01-03 09:27:00,
2013-01-03 04:32:00,55.4,53.7,30.08,ESE,118,0.0,0.0,94,0.00,CLR,,0.00,WeatherDisplay:10.37,2013-01-03 09:32:00,
2013-01-03 04:37:00,55.4,53.7,30.08,ESE,118,0.0,0.0,94,0.00,CLR,,0.00,WeatherDisplay:10.37,2013-01-03 09:37:00,
2013-01-03 04:43:00,55.4,53.7,30.09,ESE,118,0.0,0.0,94,0.00,CLR,,0.00,WeatherDisplay:10.37,2013-01-03 09:43:00,
2013-01-03 04:48:00,55.4,53.7,30.08,ESE,117,0.0,0.0,94,0.00,CLR,,0.00,WeatherDisplay:10.37,2013-01-03 09:48:00,
2013-01-03 04:53:00,55.3,53.6,30.08,ESE,118,0.0,0.0,94,0.00,CLR,,0.00,WeatherDisplay:10.37,2013-01-03 09:53:00,
2013-01-03 04:58:00,55.3,53.6,30.08,ESE,117,0.0,0.0,94,0.00,CLR,,0.00,WeatherDisplay:10.37,2013-01-03 09:58:00,
2013-01-03 05:03:00,55.3,53.6,30.09,ESE,117,0.0,0.0,94,0.00,CLR,,0.00,WeatherDisplay:10.37,2013-01-03 10:03:00,
2013-01-03 05:08:00,55.3,53.6,30.09,ESE,118,0.0,0.0,94,0.00,CLR,,0.00,WeatherDisplay:10.37,2013-01-03 10:08:00,
2013-01-03 05:13:00,55.3,53.6,30.10,ESE,118,0.0,0.0,94,0.00,CLR,,0.00,WeatherDisplay:10.37,2013-01-03 10:13:00,
2013-01-03 05:18:00,55.3,53.6,30.10,ESE,118,0.0,0.0,94,0.00,CLR,,0.00,WeatherDisplay:10.37,2013-01-03 10:18:00,
2013-01-03 05:23:00,55.3,53.6,30.10,ESE,117,0.0,0.0,94,0.00,CLR,,0.00,WeatherDisplay:10.37,2013-01-03 10:23:00,
2013-01-03 05:28:00,55.3,53.6,30.10,ESE,118,0.0,0.0,94,0.00,CLR,,0.00,WeatherDisplay:10.37,2013-01-03 10:28:00,
2013-01-03 05:33:00,55.3,53.6,30.11,ESE,118,0.0,0.0,94,0.00,CLR,,0.00,WeatherDisplay:10.37,2013-01-03 10:33:00,
2013-01-03 05:38:00,55.2,53.5,30.11,ESE,118,0.0,0.0,94,0.00,CLR,,0.00,WeatherDisplay:10.37,2013-01-03 10:38:00,
2013-01-03 05:43:00,55.2,53.5,30.11,ESE,117,0.0,0.0,94,0.00,CLR,,0.00,WeatherDisplay:10.37,2013-01-03 10:43:00,
2013-01-03 05:48:00,55.2,53.5,30.12,ESE,118,0.0,0.0,94,0.00,CLR,,0.00,WeatherDisplay:10.37,2013-01-03 10:48:00,
2013-01-03 05:53:00,55.2,53.5,30.12,ESE,117,0.0,0.0,94,0.00,CLR,,0.00,WeatherDisplay:10.37,2013-01-03 10:53:00,
2013-01-03 05:58:00,55.2,53.5,30.11,ESE,118,0.0,0.0,94,0.00,CLR,,0.00,WeatherDisplay:10.37,2013-01-03 10:58:00,
2013-01-03 06:03:00,55.2,53.5,30.11,ESE,117,0.0,0.0,94,0.00,CLR,,0.00,WeatherDisplay:10.37,2013-01-03 11:03:00,
2013-01-03 06:08:00,55.2,53.5,30.12,ESE,117,0.0,0.0,94,0.00,CLR,,0.00,WeatherDisplay:10.37,2013-01-03 11:08:00,
2013-01-03 06:13:00,55.2,53.5,30.12,ESE,118,0.0,0.0,94,0.00,CLR,,0.00,WeatherDisplay:10.37,2013-01-03 11:13:00,
2013-01-03 06:18:00,55.2,53.5,30.12,ESE,118,0.0,0.0,94,0.00,CLR,,0.00,WeatherDisplay:10.37,2013-01-03 11:18:00,
2013-01-03 06:23:00,55.2,53.5,30.12,ESE,117,0.0,0.0,94,0.00,CLR,,0.00,WeatherDisplay:10.37,2013-01-03 11:23:00,
2013-01-03 06:28:00,55.2,53.5,30.13,ESE,118,0.0,0.0,94,0.00,CLR,,0.00,WeatherDisplay:10.37,2013-01-03 11:28:00,
2013-01-03 06:33:00,55.2,53.5,30.13,ESE,118,0.0,0.0,94,0.00,CLR,,0.00,WeatherDisplay:10.37,2013-01-03 11:33:00,
2013-01-03 06:38:00,55.2,53.5,30.13,ESE,117,0.0,0.0,94,0.00,CLR,,0.00,WeatherDisplay:10.37,2013-01-03 11:38:00,
2013-01-03 06:43:00,55.2,53.5,30.13,ESE,118,0.0,0.0,94,0.00,CLR,,0.00,WeatherDisplay:10.37,2013-01-03 11:43:00,
2013-01-03 06:48:00,55.2,53.5,30.13,ESE,118,0.0,0.0,94,0.00,CLR,,0.00,WeatherDisplay:10.37,2013-01-03 11:48:00,
2013-01-03 06:53:00,55.2,53.5,30.13,ESE,117,0.0,0.0,94,0.00,CLR,,0.00,WeatherDisplay:10.37,2013-01-03 11:53:00,
2013-01-03 06:58:00,55.2,53.5,30.14,ESE,117,0.0,0.0,94,0.00,CLR,,0.00,WeatherDisplay:10.37,2013-01-03 11:58:00,
2013-01-03 07:03:00,55.2,53.5,30.14,ESE,118,0.0,0.0,94,0.00,CLR,,0.00,WeatherDisplay:10.37,2013-01-03 12:03:00,
2013-01-03 07:08:00,55.2,53.5,30.13,ESE,118,0.0,0.0,94,0.00,CLR,,0.00,WeatherDisplay:10.37,2013-01-03 12:08:00,
2013-01-03 07:13:00,55.3,53.6,30.13,ESE,118,0.0,0.0,94,0.00,CLR,,0.00,WeatherDisplay:10.37,2013-01-03 12:13:00,
2013-01-03 07:18:00,55.3,53.6,30.12,ESE,118,0.0,0.0,94,0.00,CLR,,0.00,WeatherDisplay:10.37,2013-01-03 12:18:00,
2013-01-03 07:23:00,55.3,53.6,30.13,ESE,117,0.0,0.0,94,0.00,CLR,,0.00,WeatherDisplay:10.37,2013-01-03 12:23:00,
2013-01-03 07:28:00,55.3,53.6,30.13,ESE,117,0.0,0.0,94,0.00,CLR,,0.00,WeatherDisplay:10.37,2013-01-03 12:28:00,
2013-01-03 07:33:00,55.3,53.6,30.14,ESE,117,0.0,0.0,94,0.00,CLR,,0.00,WeatherDisplay:10.37,2013-01-03 12:33:00,
2013-01-03 07:38:00,55.3,53.6,30.13,ESE,118,0.0,0.0,94,0.00,CLR,,0.00,WeatherDisplay:10.37,2013-01-03 12:38:00,
2013-01-03 07:43:00,55.4,53.7,30.13,ESE,118,0.0,0.0,94,0.00,CLR,,0.00,WeatherDisplay:10.37,2013-01-03 12:43:00,
2013-01-03 07:48:00,55.4,53.7,30.13,ESE,117,0.0,0.0,94,0.00,CLR,,0.00,WeatherDisplay:10.37,2013-01-03 12:48:00,
2013-01-03 07:53:00,55.4,53.7,30.13,ESE,118,0.0,0.0,94,0.00,CLR,,0.00,WeatherDisplay:10.37,2013-01-03 12:53:00,
2013-01-03 07:58:00,55.4,53.7,30.13,ESE,117,0.0,0.0,94,0.00,CLR,,0.00,WeatherDisplay:10.37,2013-01-03 12:58:00,
2013-01-03 08:03:00,55.4,53.7,30.13,ESE,118,0.0,0.0,94,0.00,CLR,,0.00,WeatherDisplay:10.37,2013-01-03 13:03:00,
2013-01-03 08:08:00,55.4,53.7,30.13,ESE,118,0.0,0.0,94,0.00,CLR,,0.00,WeatherDisplay:10.37,2013-01-03 13:08:00,
2013-01-03 08:13:00,55.4,53.7,30.13,ESE,118,0.0,0.0,94,0.00,CLR,,0.00,WeatherDisplay:10.37,2013-01-03 13:13:00,
2013-01-03 08:18:00,55.4,53.7,30.14,ESE,118,0.0,0.0,94,0.00,CLR,,0.00,WeatherDisplay:10.37,2013-01-03 13:18:00,
2013-01-03 08:23:00,55.4,53.7,30.14,ESE,118,0.0,0.0,94,0.00,CLR,,0.00,WeatherDisplay:10.37,2013-01-03 13:23:00,
2013-01-03 08:28:00,55.4,53.7,30.14,ESE,117,0.0,0.0,94,0.00,CLR,,0.00,WeatherDisplay:10.37,2013-01-03 13:28:00,
2013-01-03 08:33:00,55.3,53.6,30.14,ESE,118,0.0,0.0,94,0.00,CLR,,0.00,WeatherDisplay:10.37,2013-01-03 13:33:00,
2013-01-03 08:38:00,55.3,53.9,30.14,ESE,118,0.0,0.0,95,0.00,CLR,,0.00,WeatherDisplay:10.37,2013-01-03 13:38:00,
2013-01-03 08:43:00,55.3,53.9,30.14,ESE,118,0.0,0.0,95,0.00,CLR,,0.00,WeatherDisplay:10.37,2013-01-03 13:43:00,
2013-01-03 08:48:00,55.3,53.9,30.13,ESE,117,0.0,0.0,95,0.00,CLR,,0.00,WeatherDisplay:10.37,2013-01-03 13:48:00,
2013-01-03 08:53:00,55.3,53.9,30.14,ESE,117,0.0,0.0,95,0.00,CLR,,0.00,WeatherDisplay:10.37,2013-01-03 13:53:00,
2013-01-03 08:58:00,55.3,53.9,30.14,ESE,117,0.0,0.0,95,0.00,CLR,,0.00,WeatherDisplay:10.37,2013-01-03 13:58:00,
2013-01-03 09:03:00,55.3,53.9,30.14,ESE,117,0.0,0.0,95,0.00,CLR,,0.00,WeatherDisplay:10.37,2013-01-03 14:03:00,
2013-01-03 09:08:00,55.2,53.8,30.15,ESE,117,0.0,0.0,95,0.00,CLR,,0.00,WeatherDisplay:10.37,2013-01-03 14:08:00,
2013-01-03 09:13:00,55.2,53.8,30.15,ESE,118,0.0,0.0,95,0.00,CLR,,0.00,WeatherDisplay:10.37,2013-01-03 14:13:00,
2013-01-03 09:18:00,55.3,53.9,30.15,ESE,119,0.0,0.0,95,0.00,CLR,,0.00,WeatherDisplay:10.37,2013-01-03 14:18:00,
2013-01-03 09:23:00,55.3,53.9,30.15,ESE,117,0.0,0.0,95,0.00,CLR,,0.00,WeatherDisplay:10.37,2013-01-03 14:23:00,
2013-01-03 09:28:00,55.3,53.9,30.15,ESE,117,0.0,0.0,95,0.00,CLR,,0.00,WeatherDisplay:10.37,2013-01-03 14:28:00,
2013-01-03 09:33:00,55.4,54.0,30.16,ESE,118,0.0,0.0,95,0.00,CLR,,0.00,WeatherDisplay:10.37,2013-01-03 14:33:00,
2013-01-03 09:38:00,55.4,54.0,30.17,ESE,118,0.0,0.0,95,0.00,CLR,,0.00,WeatherDisplay:10.37,2013-01-03 14:38:00,
2013-01-03 09:43:00,55.4,54.0,30.17,ESE,117,0.0,0.0,95,0.00,CLR,,0.00,WeatherDisplay:10.37,2013-01-03 14:43:00,
2013-01-03 09:48:00,55.4,54.0,30.16,ESE,118,0.0,0.0,95,0.00,CLR,,0.00,WeatherDisplay:10.37,2013-01-03 14:48:00,
2013-01-03 09:53:00,55.4,54.0,30.17,WNW,287,4.6,4.6,95,0.01,RA,,0.01,WeatherDisplay:10.37,2013-01-03 14:53:00,
2013-01-03 09:58:00,55.2,53.8,30.17,West,279,3.5,3.5,95,0.01,RA,,0.01,WeatherDisplay:10.37,2013-01-03 14:58:00,
2013-01-03 10:03:00,55.0,53.6,30.18,West,262,0.0,0.0,95,0.01,CLR,,0.01,WeatherDisplay:10.37,2013-01-03 15:03:00,
2013-01-03 10:08:00,54.9,53.5,30.19,West,277,4.0,4.0,95,0.01,CLR,,0.01,WeatherDisplay:10.37,2013-01-03 15:08:00,
2013-01-03 10:13:00,54.7,53.3,30.19,WNW,291,0.0,0.0,95,0.01,CLR,,0.01,WeatherDisplay:10.37,2013-01-03 15:13:00,
2013-01-03 10:18:00,54.4,53.0,30.19,WNW,290,0.0,0.0,95,0.01,CLR,,0.01,WeatherDisplay:10.37,2013-01-03 15:18:00,
2013-01-03 10:23:00,54.2,52.8,30.19,WNW,289,4.6,4.6,95,0.01,CLR,,0.01,WeatherDisplay:10.37,2013-01-03 15:23:00,
2013-01-03 10:28:00,54.0,52.6,30.19,WNW,298,4.6,4.6,95,0.01,CLR,,0.01,WeatherDisplay:10.37,2013-01-03 15:28:00,
2013-01-03 10:33:00,53.5,51.8,30.20,WNW,291,4.6,4.6,94,0.01,CLR,,0.01,WeatherDisplay:10.37,2013-01-03 15:33:00,
2013-01-03 10:38:00,52.9,51.2,30.20,NW,305,1.1,1.1,94,0.01,CLR,,0.01,WeatherDisplay:10.37,2013-01-03 15:38:00,
2013-01-03 10:43:00,52.5,50.8,30.20,NW,315,5.8,5.8,94,0.01,CLR,,0.01,WeatherDisplay:10.37,2013-01-03 15:43:00,
2013-01-03 10:48:00,52.2,50.5,30.19,WNW,295,3.5,0.0,94,0.01,CLR,,0.01,WeatherDisplay:10.37,2013-01-03 15:48:00,
2013-01-03 10:53:00,52.0,50.3,30.18,WNW,298,1.1,0.0,94,0.00,CLR,,0.01,WeatherDisplay:10.37,2013-01-03 15:53:00,
2013-01-03 10:58:00,51.8,50.1,30.18,NW,311,0.0,0.0,94,0.00,CLR,,0.01,WeatherDisplay:10.37,2013-01-03 15:58:00,
2013-01-03 11:03:00,51.6,49.9,30.19,West,279,1.1,0.0,94,0.01,RA,,0.02,WeatherDisplay:10.37,2013-01-03 16:03:00,
2013-01-03 11:08:00,51.2,49.2,30.19,NW,314,3.5,3.5,93,0.01,RA,,0.02,WeatherDisplay:10.37,2013-01-03 16:08:00,
2013-01-03 11:13:00,50.6,48.7,30.19,West,280,1.1,0.0,93,0.01,,,0.02,WeatherDisplay:10.37,2013-01-03 16:13:00,
2013-01-03 11:18:00,50.2,48.3,30.19,WNW,294,4.0,4.0,93,0.01,CLR,,0.02,WeatherDisplay:10.37,2013-01-03 16:18:00,
2013-01-03 11:23:00,49.9,48.0,30.19,WNW,292,3.5,3.5,93,0.01,CLR,,0.02,WeatherDisplay:10.37,2013-01-03 16:23:00,
2013-01-03 11:28:00,49.6,47.4,30.20,NW,304,0.0,0.0,92,0.01,CLR,,0.02,WeatherDisplay:10.37,2013-01-03 16:28:00,
2013-01-03 11:33:00,49.7,47.8,30.19,WNW,296,0.0,0.0,93,0.01,CLR,,0.02,WeatherDisplay:10.37,2013-01-03 16:33:00,
2013-01-03 11:38:00,49.7,47.8,30.19,WNW,297,3.5,3.5,93,0.01,CLR,,0.02,WeatherDisplay:10.37,2013-01-03 16:38:00,
2013-01-03 11:43:00,49.7,47.8,30.19,NW,304,1.1,1.1,93,0.01,CLR,,0.02,WeatherDisplay:10.37,2013-01-03 16:43:00,
2013-01-03 11:48:00,49.7,47.5,30.18,WSW,257,5.0,5.0,92,0.01,CLR,,0.02,WeatherDisplay:10.37,2013-01-03 16:48:00,
2013-01-03 11:53:00,49.7,47.5,30.17,NW,307,5.8,5.8,92,0.01,CLR,,0.02,WeatherDisplay:10.37,2013-01-03 16:53:00,
2013-01-03 11:58:00,49.7,47.5,30.17,NNE,28,5.0,5.0,92,0.01,CLR,,0.02,WeatherDisplay:10.37,2013-01-03 16:58:00,
2013-01-03 12:03:00,49.7,47.5,30.17,NW,313,2.3,0.0,92,0.00,CLR,,0.02,WeatherDisplay:10.37,2013-01-03 17:03:00,
2013-01-03 12:08:00,49.7,47.5,30.17,NW,310,0.0,0.0,92,0.00,CLR,,0.02,WeatherDisplay:10.37,2013-01-03 17:08:00,
2013-01-03 12:13:00,49.8,47.3,30.17,NW,312,1.0,0.0,91,0.00,CLR,,0.02,WeatherDisplay:10.37,2013-01-03 17:13:00,
2013-01-03 12:18:00,49.7,47.2,30.17,NW,317,4.6,4.6,91,0.00,CLR,,0.02,WeatherDisplay:10.37,2013-01-03 17:18:00,
2013-01-03 12:23:00,49.6,46.8,30.17,NW,305,4.6,4.6,90,0.00,CLR,,0.02,WeatherDisplay:10.37,2013-01-03 17:23:00,
2013-01-03 12:28:00,49.7,46.6,30.17,NW,304,3.0,3.0,89,0.00,CLR,,0.02,WeatherDisplay:10.37,2013-01-03 17:28:00,
2013-01-03 12:33:00,49.7,46.6,30.16,WNW,303,0.0,0.0,89,0.00,CLR,,0.02,WeatherDisplay:10.37,2013-01-03 17:33:00,
2013-01-03 12:38:00,49.8,46.4,30.15,NW,304,1.1,0.0,88,0.00,CLR,,0.02,WeatherDisplay:10.37,2013-01-03 17:38:00,
2013-01-03 12:43:00,49.9,46.2,30.15,NW,304,0.0,0.0,87,0.00,CLR,,0.02,WeatherDisplay:10.37,2013-01-03 17:43:00,
2013-01-03 12:48:00,50.0,46.3,30.15,WNW,303,0.0,0.0,87,0.00,CLR,,0.02,WeatherDisplay:10.37,2013-01-03 17:48:00,
2013-01-03 12:53:00,50.1,46.4,30.15,WNW,303,0.0,0.0,87,0.00,CLR,,0.02,WeatherDisplay:10.37,2013-01-03 17:53:00,
2013-01-03 12:58:00,50.1,46.1,30.15,NNW,338,3.0,3.0,86,0.00,CLR,,0.02,WeatherDisplay:10.37,2013-01-03 17:58:00,
2013-01-03 13:03:00,50.3,46.0,30.15,NNW,331,6.9,6.9,85,0.00,CLR,,0.02,WeatherDisplay:10.37,2013-01-03 18:03:00,
2013-01-03 13:08:00,50.3,45.6,30.16,NW,314,4.6,4.6,84,0.00,CLR,,0.02,WeatherDisplay:10.37,2013-01-03 18:08:00,
2013-01-03 13:13:00,50.4,45.7,30.15,NW,315,5.8,5.8,84,0.00,CLR,,0.02,WeatherDisplay:10.37,2013-01-03 18:13:00,
2013-01-03 13:18:00,50.4,45.7,30.16,NW,315,3.0,3.0,84,0.00,CLR,,0.02,WeatherDisplay:10.37,2013-01-03 18:18:00,
2013-01-03 13:23:00,50.5,45.8,30.16,NW,305,3.5,3.5,84,0.00,CLR,,0.02,WeatherDisplay:10.37,2013-01-03 18:23:00,
2013-01-03 13:28:00,50.4,45.4,30.15,NW,321,8.0,8.0,83,0.00,CLR,,0.02,WeatherDisplay:10.37,2013-01-03 18:28:00,
2013-01-03 13:33:00,50.3,45.0,30.15,NNW,327,3.5,3.5,82,0.00,CLR,,0.02,WeatherDisplay:10.37,2013-01-03 18:33:00,
2013-01-03 13:38:00,50.3,45.3,30.15,WNW,291,5.8,5.8,83,0.00,CLR,,0.02,WeatherDisplay:10.37,2013-01-03 18:38:00,
2013-01-03 13:43:00,50.4,45.4,30.15,WNW,286,1.1,1.1,83,0.00,CLR,,0.02,WeatherDisplay:10.37,2013-01-03 18:43:00,
2013-01-03 13:48:00,50.4,45.4,30.15,NW,319,3.5,0.0,83,0.00,CLR,,0.02,WeatherDisplay:10.37,2013-01-03 18:48:00,
2013-01-03 13:53:00,50.4,45.4,30.15,NNW,335,3.5,3.5,83,0.00,CLR,,0.02,WeatherDisplay:10.37,2013-01-03 18:53:00,
2013-01-03 13:58:00,50.4,45.4,30.15,NNW,334,0.0,0.0,83,0.00,CLR,,0.02,WeatherDisplay:10.37,2013-01-03 18:58:00,
2013-01-03 14:03:00,50.4,45.7,30.15,NNW,329,1.0,1.0,84,0.00,CLR,,0.02,WeatherDisplay:10.37,2013-01-03 19:03:00,
2013-01-03 14:08:00,50.4,45.7,30.15,NNW,327,0.0,0.0,84,0.00,CLR,,0.02,WeatherDisplay:10.37,2013-01-03 19:08:00,
2013-01-03 14:13:00,50.3,46.0,30.15,NNW,328,0.0,0.0,85,0.00,CLR,,0.02,WeatherDisplay:10.37,2013-01-03 19:13:00,
2013-01-03 14:18:00,50.4,46.1,30.15,NNW,328,0.0,0.0,85,0.00,CLR,,0.02,WeatherDisplay:10.37,2013-01-03 19:18:00,
2013-01-03 14:54:00,49.7,46.6,30.15,WNW,298,0.0,0.0,89,0.01,CLR,,0.03,WeatherDisplay:10.37,2013-01-03 19:54:00,
2013-01-03 14:59:00,49.8,46.7,30.15,WNW,298,1.0,0.0,89,0.02,RA,,0.04,WeatherDisplay:10.37,2013-01-03 19:59:00,
2013-01-03 15:04:00,49.8,46.7,30.16,WNW,298,0.0,0.1,89,0.02,RA,,0.04,WeatherDisplay:10.37,2013-01-03 20:04:00,
2013-01-03 15:09:00,49.7,46.9,30.15,NNW,346,0.0,0.0,90,0.03,RA,,0.05,WeatherDisplay:10.37,2013-01-03 20:09:00,
2013-01-03 15:14:00,49.6,46.8,30.15,North,355,0.0,0.0,90,0.03,RA,,0.05,WeatherDisplay:10.37,2013-01-03 20:14:00,
2013-01-03 15:19:00,49.5,46.7,30.14,North,355,0.0,0.0,90,0.03,CLR,,0.05,WeatherDisplay:10.37,2013-01-03 20:19:00,
2013-01-03 15:24:00,49.5,46.7,30.14,North,355,0.0,0.0,90,0.02,CLR,,0.05,WeatherDisplay:10.37,2013-01-03 20:24:00,
2013-01-03 15:29:00,49.4,46.9,30.14,North,355,0.0,0.0,91,0.03,RA,,0.06,WeatherDisplay:10.37,2013-01-03 20:29:00,
2013-01-03 15:34:00,49.4,46.9,30.15,NNW,340,0.0,0.0,91,0.03,RA,,0.06,WeatherDisplay:10.37,2013-01-03 20:34:00,
2013-01-03 15:39:00,49.4,46.9,30.16,NNW,340,0.0,0.0,91,0.03,,,0.06,WeatherDisplay:10.37,2013-01-03 20:39:00,
2013-01-03 15:44:00,49.3,46.8,30.17,NNW,340,0.0,0.0,91,0.03,CLR,,0.06,WeatherDisplay:10.37,2013-01-03 20:44:00,
2013-01-03 15:49:00,49.2,46.7,30.17,West,275,0.0,0.0,91,0.03,CLR,,0.06,WeatherDisplay:10.37,2013-01-03 20:49:00,
2013-01-03 15:54:00,49.2,46.7,30.17,West,272,0.0,0.0,91,0.03,CLR,,0.06,WeatherDisplay:10.37,2013-01-03 20:54:00,
2013-01-03 15:59:00,49.1,46.6,30.17,West,272,0.0,0.0,91,0.02,CLR,,0.06,WeatherDisplay:10.37,2013-01-03 20:59:00,
2013-01-03 16:04:00,49.1,46.9,30.16,West,273,0.0,0.0,92,0.02,CLR,,0.06,WeatherDisplay:10.37,2013-01-03 21:04:00,
2013-01-03 16:09:00,49.2,47.0,30.16,West,273,0.0,0.0,92,0.02,RA,,0.07,WeatherDisplay:10.37,2013-01-03 21:09:00,
2013-01-03 16:14:00,49.2,47.0,30.16,West,273,0.0,0.0,92,0.02,RA,,0.07,WeatherDisplay:10.37,2013-01-03 21:14:00,
2013-01-03 16:19:00,49.2,47.0,30.16,West,273,0.0,0.0,92,0.02,,,0.07,WeatherDisplay:10.37,2013-01-03 21:19:00,
2013-01-03 16:24:00,49.2,47.0,30.16,West,273,0.0,0.0,92,0.02,CLR,,0.07,WeatherDisplay:10.37,2013-01-03 21:24:00,
2013-01-03 16:29:00,49.3,47.1,30.16,West,272,0.0,0.0,92,0.01,CLR,,0.07,WeatherDisplay:10.37,2013-01-03 21:29:00,
2013-01-03 16:34:00,49.3,47.1,30.17,West,272,0.0,0.0,92,0.01,CLR,,0.07,WeatherDisplay:10.37,2013-01-03 21:34:00,
2013-01-03 16:39:00,49.3,47.1,30.17,West,273,0.0,0.0,92,0.02,RA,,0.08,WeatherDisplay:10.37,2013-01-03 21:39:00,
2013-01-03 16:45:00,49.3,47.1,30.17,West,273,0.0,0.0,92,0.02,RA,,0.08,WeatherDisplay:10.37,2013-01-03 21:45:00,
2013-01-03 16:50:00,49.4,47.2,30.17,West,273,0.0,0.0,92,0.03,RA,,0.09,WeatherDisplay:10.37,2013-01-03 21:50:00,
2013-01-03 16:55:00,49.4,47.2,30.17,West,272,0.0,0.0,92,0.03,RA,,0.09,WeatherDisplay:10.37,2013-01-03 21:55:00,
2013-01-03 17:00:00,49.3,47.1,30.18,West,273,0.0,0.0,92,0.03,,,0.09,WeatherDisplay:10.37,2013-01-03 22:00:00,
2013-01-03 17:05:00,49.2,47.3,30.19,West,273,0.0,0.0,93,0.00,RA,,0.10,WeatherDisplay:10.37,2013-01-03 22:05:00,
2013-01-03 17:10:00,49.2,47.3,30.18,West,273,0.0,0.0,93,0.03,RA,,0.10,WeatherDisplay:10.37,2013-01-03 22:10:00,
2013-01-03 17:15:00,49.2,47.3,30.18,West,273,0.0,0.0,93,0.04,RA,,0.11,WeatherDisplay:10.37,2013-01-03 22:15:00,
2013-01-03 17:20:00,49.2,47.3,30.18,West,273,0.0,0.0,93,0.04,RA,,0.11,WeatherDisplay:10.37,2013-01-03 22:20:00,
2013-01-03 17:25:00,49.1,47.2,30.18,West,273,0.0,0.0,93,0.05,RA,,0.12,WeatherDisplay:10.37,2013-01-03 22:25:00,
2013-01-03 17:30:00,49.1,47.2,30.18,West,273,0.0,0.0,93,0.05,RA,,0.12,WeatherDisplay:10.37,2013-01-03 22:30:00,
2013-01-03 17:35:00,49.0,47.1,30.18,West,273,0.0,0.0,93,0.00,CLR,,0.12,WeatherDisplay:10.37,2013-01-03 22:35:00,
2013-01-03 17:40:00,49.0,47.1,30.17,West,273,0.0,0.0,93,0.06,RA,,0.13,WeatherDisplay:10.37,2013-01-03 22:40:00,
2013-01-03 17:45:00,49.0,47.1,30.17,West,272,0.0,0.0,93,0.05,RA,,0.13,WeatherDisplay:10.37,2013-01-03 22:45:00,
2013-01-03 17:50:00,49.0,47.1,30.18,West,272,0.0,0.0,93,0.06,RA,,0.14,WeatherDisplay:10.37,2013-01-03 22:50:00,
2013-01-03 17:55:00,49.0,47.1,30.18,West,273,0.0,0.0,93,0.00,RA,,0.14,WeatherDisplay:10.37,2013-01-03 22:55:00,
2013-01-03 18:00:00,49.0,47.1,30.18,West,273,0.0,0.0,93,0.05,,,0.14,WeatherDisplay:10.37,2013-01-03 23:00:00,
2013-01-03 18:05:00,49.0,47.1,30.18,West,273,0.0,1.0,93,0.00,CLR,,0.14,WeatherDisplay:10.37,2013-01-03 23:05:00,
2013-01-03 18:10:00,48.9,47.0,30.19,West,275,1.1,1.1,93,0.04,CLR,,0.14,WeatherDisplay:10.37,2013-01-03 23:10:00,
2013-01-03 18:15:00,48.9,47.2,30.19,West,274,0.0,1.0,94,0.00,CLR,,0.14,WeatherDisplay:10.37,2013-01-03 23:15:00,
2013-01-03 18:20:00,48.9,47.2,30.19,West,275,3.5,0.0,94,0.03,CLR,,0.14,WeatherDisplay:10.37,2013-01-03 23:20:00,
2013-01-03 18:25:00,48.9,47.2,30.19,West,275,0.0,0.0,94,0.00,CLR,,0.14,WeatherDisplay:10.37,2013-01-03 23:25:00,
2013-01-03 18:30:00,48.9,47.2,30.21,West,281,0.0,0.0,94,0.02,CLR,,0.14,WeatherDisplay:10.37,2013-01-03 23:30:00,
2013-01-03 18:35:00,48.9,47.2,30.21,WNW,290,0.0,5.0,94,0.00,CLR,,0.14,WeatherDisplay:10.37,2013-01-03 23:35:00,
2013-01-03 18:40:00,48.9,47.2,30.21,WNW,292,3.0,3.0,94,0.01,CLR,,0.14,WeatherDisplay:10.37,2013-01-03 23:40:00,
2013-01-03 18:45:00,48.8,47.2,30.21,WNW,292,1.0,4.0,94,0.00,CLR,,0.14,WeatherDisplay:10.37,2013-01-03 23:45:00,
2013-01-03 18:50:00,48.8,47.2,30.22,WNW,292,2.3,0.0,94,0.00,CLR,,0.14,WeatherDisplay:10.37,2013-01-03 23:50:00,
2013-01-03 18:55:00,48.8,47.2,30.22,WNW,293,0.0,3.0,94,0.00,CLR,,0.14,WeatherDisplay:10.37,2013-01-03 23:55:00,
2013-01-03 19:00:00,48.8,47.2,30.21,WNW,298,1.0,1.2,94,0.00,CLR,,0.14,WeatherDisplay:10.37,2013-01-04 00:00:00,
2013-01-03 19:05:00,48.7,47.1,30.21,WNW,298,0.0,3.0,94,0.00,CLR,,0.14,WeatherDisplay:10.37,2013-01-04 00:05:00,
2013-01-03 19:10:00,48.7,47.1,30.21,NW,306,3.5,3.5,94,0.00,CLR,,0.14,WeatherDisplay:10.37,2013-01-04 00:10:00,
2013-01-03 19:15:00,48.7,47.1,30.22,NW,307,0.0,7.0,94,0.00,CLR,,0.14,WeatherDisplay:10.37,2013-01-04 00:15:00,
2013-01-03 19:20:00,48.7,47.1,30.22,NW,311,4.6,4.6,94,0.00,CLR,,0.14,WeatherDisplay:10.37,2013-01-04 00:20:00,
2013-01-03 19:25:00,48.7,47.1,30.22,NW,310,0.0,3.0,94,0.00,CLR,,0.14,WeatherDisplay:10.37,2013-01-04 00:25:00,
2013-01-03 19:30:00,48.6,47.0,30.24,NW,304,4.0,4.0,94,0.00,CLR,,0.14,WeatherDisplay:10.37,2013-01-04 00:30:00,
2013-01-03 19:35:00,48.6,47.0,30.23,NW,312,3.0,8.0,94,0.00,CLR,,0.14,WeatherDisplay:10.37,2013-01-04 00:35:00,
2013-01-03 19:40:00,48.5,46.9,30.22,NW,326,0.0,0.0,94,0.00,CLR,,0.14,WeatherDisplay:10.37,2013-01-04 00:40:00,
2013-01-03 19:45:00,48.5,46.9,30.22,NW,324,0.0,0.0,94,0.00,CLR,,0.14,WeatherDisplay:10.37,2013-01-04 00:45:00,
2013-01-03 19:50:00,48.4,46.8,30.22,NW,324,0.0,0.0,94,0.00,CLR,,0.14,WeatherDisplay:10.37,2013-01-04 00:50:00,
2013-01-03 19:55:00,48.5,46.8,30.23,NW,324,0.0,2.0,94,0.00,CLR,,0.14,WeatherDisplay:10.37,2013-01-04 00:55:00,
2013-01-03 20:00:00,48.4,46.8,30.24,NW,311,3.5,3.5,94,0.00,CLR,,0.14,WeatherDisplay:10.37,2013-01-04 01:00:00,
2013-01-03 20:05:00,48.3,46.7,30.23,WNW,301,0.0,1.0,94,0.00,CLR,,0.14,WeatherDisplay:10.37,2013-01-04 01:05:00,
2013-01-03 20:10:00,48.3,46.7,30.23,WNW,302,0.0,0.0,94,0.00,CLR,,0.14,WeatherDisplay:10.37,2013-01-04 01:10:00,
2013-01-03 20:15:00,48.3,46.7,30.23,WNW,302,0.0,0.0,94,0.00,CLR,,0.14,WeatherDisplay:10.37,2013-01-04 01:15:00,
2013-01-03 20:20:00,48.2,46.6,30.24,NW,312,3.0,3.0,94,0.00,CLR,,0.14,WeatherDisplay:10.37,2013-01-04 01:20:00,
2013-01-03 20:25:00,48.2,46.8,30.24,NW,307,0.0,3.0,95,0.00,CLR,,0.14,WeatherDisplay:10.37,2013-01-04 01:25:00,
2013-01-03 20:30:00,48.2,46.8,30.24,NW,317,0.0,0.0,95,0.00,CLR,,0.14,WeatherDisplay:10.37,2013-01-04 01:30:00,
2013-01-03 20:35:00,48.1,46.7,30.24,NW,317,0.0,4.0,95,0.00,CLR,,0.14,WeatherDisplay:10.37,2013-01-04 01:35:00,
2013-01-03 20:40:00,48.1,46.7,30.24,NW,315,3.5,3.5,95,0.00,CLR,,0.14,WeatherDisplay:10.37,2013-01-04 01:40:00,
2013-01-03 20:45:00,48.0,46.6,30.24,NW,315,0.0,2.0,95,0.00,CLR,,0.14,WeatherDisplay:10.37,2013-01-04 01:45:00,
2013-01-03 20:50:00,48.0,46.6,30.24,NW,315,1.0,4.0,95,0.00,CLR,,0.14,WeatherDisplay:10.37,2013-01-04 01:50:00,
2013-01-03 20:55:00,48.0,46.6,30.25,NW,313,0.0,0.0,95,0.00,CLR,,0.14,WeatherDisplay:10.37,2013-01-04 01:55:00,
2013-01-03 21:00:00,47.9,46.5,30.24,NW,312,0.0,0.0,95,0.00,CLR,,0.14,WeatherDisplay:10.37,2013-01-04 02:00:00,
2013-01-03 21:05:00,47.9,46.3,30.25,NW,321,2.0,6.0,94,0.00,CLR,,0.14,WeatherDisplay:10.37,2013-01-04 02:05:00,
2013-01-03 21:10:00,47.9,46.3,30.25,NW,306,2.3,2.3,94,0.00,CLR,,0.14,WeatherDisplay:10.37,2013-01-04 02:10:00,
2013-01-03 21:15:00,47.8,46.2,30.25,NW,309,0.0,2.0,94,0.00,CLR,,0.14,WeatherDisplay:10.37,2013-01-04 02:15:00,
2013-01-03 21:20:00,47.8,46.2,30.24,NW,306,0.0,0.0,94,0.00,CLR,,0.14,WeatherDisplay:10.37,2013-01-04 02:20:00,
2013-01-03 21:25:00,47.8,46.2,30.24,NW,306,0.0,0.0,94,0.00,CLR,,0.14,WeatherDisplay:10.37,2013-01-04 02:25:00,
2013-01-03 21:30:00,47.7,46.1,30.25,NW,306,3.5,3.5,94,0.00,CLR,,0.14,WeatherDisplay:10.37,2013-01-04 02:30:00,
2013-01-03 21:35:00,47.7,46.1,30.25,NW,306,0.0,3.0,94,0.00,CLR,,0.14,WeatherDisplay:10.37,2013-01-04 02:35:00,
2013-01-03 21:40:00,47.6,46.2,30.25,NW,306,0.0,0.0,95,0.00,CLR,,0.14,WeatherDisplay:10.37,2013-01-04 02:40:00,
2013-01-03 21:45:00,47.5,45.9,30.25,NW,306,0.0,0.0,94,0.00,CLR,,0.14,WeatherDisplay:10.37,2013-01-04 02:45:00,
2013-01-03 21:50:00,47.5,46.1,30.25,NW,306,0.0,0.0,95,0.00,CLR,,0.14,WeatherDisplay:10.37,2013-01-04 02:50:00,
2013-01-03 21:55:00,47.4,45.8,30.25,NW,306,0.0,0.0,94,0.00,CLR,,0.14,WeatherDisplay:10.37,2013-01-04 02:55:00,
2013-01-03 22:00:00,47.3,45.7,30.25,NW,306,0.0,0.0,94,0.00,CLR,,0.14,WeatherDisplay:10.37,2013-01-04 03:00:00,
2013-01-03 22:05:00,47.2,45.6,30.25,NW,306,0.0,0.0,94,0.00,CLR,,0.14,WeatherDisplay:10.37,2013-01-04 03:05:00,
2013-01-03 22:10:00,47.2,45.6,30.25,NW,306,0.0,0.0,94,0.00,CLR,,0.14,WeatherDisplay:10.37,2013-01-04 03:10:00,
2013-01-03 22:15:00,47.1,45.5,30.25,NW,307,0.0,0.0,94,0.00,CLR,,0.14,WeatherDisplay:10.37,2013-01-04 03:15:00,
2013-01-03 22:20:00,47.0,45.4,30.25,NW,306,0.0,0.0,94,0.00,CLR,,0.14,WeatherDisplay:10.37,2013-01-04 03:20:00,
2013-01-03 22:25:00,47.0,45.4,30.25,NW,306,0.0,0.0,94,0.00,CLR,,0.14,WeatherDisplay:10.37,2013-01-04 03:25:00,
2013-01-03 22:30:00,46.9,45.3,30.25,NW,306,0.0,0.0,94,0.00,CLR,,0.14,WeatherDisplay:10.37,2013-01-04 03:30:00,
2013-01-03 22:35:00,46.9,45.3,30.25,NW,306,0.0,0.0,94,0.00,CLR,,0.14,WeatherDisplay:10.37,2013-01-04 03:35:00,
2013-01-03 22:40:00,46.8,45.2,30.26,NW,306,0.0,0.0,94,0.00,CLR,,0.14,WeatherDisplay:10.37,2013-01-04 03:40:00,
2013-01-03 22:45:00,46.8,45.2,30.25,NW,306,0.0,0.0,94,0.00,CLR,,0.14,WeatherDisplay:10.37,2013-01-04 03:45:00,
2013-01-03 22:50:00,46.7,45.1,30.25,NW,306,0.0,0.0,94,0.00,CLR,,0.14,WeatherDisplay:10.37,2013-01-04 03:50:00,
2013-01-03 22:55:00,46.7,45.1,30.25,NW,306,0.0,0.0,94,0.00,CLR,,0.14,WeatherDisplay:10.37,2013-01-04 03:55:00,
2013-01-03 23:00:00,46.6,45.0,30.25,NW,306,0.0,0.0,94,0.00,CLR,,0.14,WeatherDisplay:10.37,2013-01-04 04:00:00,
2013-01-03 23:05:00,46.5,44.9,30.25,NW,306,0.0,0.0,94,0.00,CLR,,0.14,WeatherDisplay:10.37,2013-01-04 04:05:00,
2013-01-03 23:10:00,46.4,44.8,30.25,NW,306,0.0,0.0,94,0.00,CLR,,0.14,WeatherDisplay:10.37,2013-01-04 04:10:00,
2013-01-03 23:15:00,46.4,44.8,30.25,NW,306,0.0,0.0,94,0.00,CLR,,0.14,WeatherDisplay:10.37,2013-01-04 04:15:00,
2013-01-03 23:20:00,46.3,44.7,30.25,NW,306,0.0,0.0,94,0.00,CLR,,0.14,WeatherDisplay:10.37,2013-01-04 04:20:00,
2013-01-03 23:25:00,46.2,44.6,30.25,NW,306,0.0,0.0,94,0.00,CLR,,0.14,WeatherDisplay:10.37,2013-01-04 04:25:00,
2013-01-03 23:30:00,46.1,44.5,30.25,NW,306,0.0,0.0,94,0.00,CLR,,0.14,WeatherDisplay:10.37,2013-01-04 04:30:00,
2013-01-03 23:35:00,46.0,44.4,30.25,NW,306,0.0,0.0,94,0.00,CLR,,0.14,WeatherDisplay:10.37,2013-01-04 04:35:00,
2013-01-03 23:40:00,45.9,44.3,30.25,NW,306,0.0,0.0,94,0.00,CLR,,0.14,WeatherDisplay:10.37,2013-01-04 04:40:00,
2013-01-03 23:45:00,45.8,44.2,30.25,NW,307,0.0,0.0,94,0.00,CLR,,0.14,WeatherDisplay:10.37,2013-01-04 04:45:00,
2013-01-03 23:50:00,45.7,44.1,30.25,NW,306,0.0,0.0,94,0.00,CLR,,0.14,WeatherDisplay:10.37,2013-01-04 04:50:00,
2013-01-03 23:55:00,45.6,44.0,30.25,NW,306,0.0,0.0,94,0.00,CLR,,0.14,WeatherDisplay:10.37,2013-01-04 04:55:00,